This is the latest recevied weather packets stored in our database for station/object KB1JLI. If no packets are shown the sender has not sent any weather packets the latest 10 day(s).
| Time | Temp. | Humidity | Pressure | Rain* | Wind** | Luminosity | Snow |
|---|---|---|---|---|---|---|---|
| 1778027144 | 20.56° C | 55% | 1008.1 hPa | 0 mm | - | 0 W/m² | - |
| 1778026840 | 20.56° C | 54% | 1008.2 hPa | 0 mm | - | 0 W/m² | - |
| 1778026536 | 20.56° C | 54% | 1008.1 hPa | 0 mm | - | 0 W/m² | - |
| 1778026234 | 21.11° C | 54% | 1007.8 hPa | 0 mm | - | 0 W/m² | - |
| 1778025931 | 21.11° C | 53% | 1007.8 hPa | 0 mm | - | 0 W/m² | - |
| 1778025629 | 21.11° C | 53% | 1007.9 hPa | 0 mm | - | 0 W/m² | - |
| 1778025326 | 21.11° C | 53% | 1007.7 hPa | 0 mm | - | 1 W/m² | - |
| 1778025023 | 21.67° C | 53% | 1007.6 hPa | 0 mm | - | 2 W/m² | - |
| 1778024720 | 21.67° C | 53% | 1007.3 hPa | 0 mm | - | 3 W/m² | - |
| 1778024417 | 21.67° C | 52% | 1007.4 hPa | 0 mm | - | 4 W/m² | - |
| 1778024114 | 22.22° C | 52% | 1007.1 hPa | 0 mm | - | 6 W/m² | - |
| 1778023812 | 22.22° C | 50% | 1007.2 hPa | 0 mm | - | 9 W/m² | - |
| 1778023509 | 22.78° C | 50% | 1007 hPa | 0 mm | - | 12 W/m² | - |
| 1778023206 | 22.78° C | 50% | 1007 hPa | 0 mm | - | 15 W/m² | - |
| 1778022903 | 22.78° C | 50% | 1007.1 hPa | 0 mm | - | 17 W/m² | - |
| 1778022602 | 22.78° C | 50% | 1007 hPa | 0 mm | - | 22 W/m² | - |
| 1778022299 | 22.78° C | 50% | 1006.8 hPa | 0 mm | - | 27 W/m² | - |
| 1778021995 | 22.78° C | 50% | 1006.8 hPa | 0 mm | - | 32 W/m² | - |
| 1778021692 | 23.33° C | 49% | 1006.8 hPa | 0 mm | - | 36 W/m² | - |
| 1778021388 | 23.33° C | 49% | 1006.7 hPa | 0 mm | - | 38 W/m² | - |
| 1778021085 | 23.33° C | 48% | 1006.6 hPa | 0 mm | - | 44 W/m² | - |
| 1778020783 | 23.33° C | 48% | 1006.5 hPa | 0 mm | - | 52 W/m² | - |
| 1778020479 | 23.89° C | 48% | 1006.3 hPa | 0 mm | - | 57 W/m² | - |
| 1778020176 | 23.89° C | 47% | 1006.3 hPa | 0 mm | - | 63 W/m² | - |
| 1778019872 | 23.89° C | 47% | 1006 hPa | 0 mm | - | 66 W/m² | - |
* Rain latest hour (hover to see other rain measurements)
** Current wind speed in m/s (hover to see current wind gust speed)